Home > Weather > Cardiff > Past weeks

Flag for United Kingdom Weather for the Past 2 Weeks in Cardiff, Wales, United Kingdom

Now
48 °F

Cool.


Feels Like: 45 °F
Forecast: 44 / 54 °F
Wind: 8 mph from South

Location: Wales Airport

Current Time: May 1, 2016 at 10:07:27 AM

Latest Report: May 1, 2016 at 9:20 AM


Visibility: N/A

Pressure: 30.33 "Hg

Humidity: 82%

Dew Point: 43 °F

Location of CardiffLocation

Historic Weather in Cardiff — Graph

°F

Cardiff Temperature Yesterday

Maximum temperature yesterday: 52 °F (at 11:50 AM)
Minimum temperature yesterday: 34 °F (at 5:50 AM)
Average temperature yesterday: 45 °F

High & Low Weather Summary for the Past Weeks

 TemperatureHumidityPressure
High61 °F (Apr 20, 3:20 PM)100% (Apr 22, 10:20 PM)30.39 "Hg (Apr 22, 10:20 PM)
Low32 °F (Apr 17, 6:20 AM)38% (Apr 26, 2:50 PM)29.59 "Hg (Apr 16, 7:20 AM)
Average46 °F71%30.08 "Hg
* Reported Apr 16 7:20 AM — May 1 7:50 AM, Cardiff, Weather by CustomWeather, © 2016

Note: Actual official high and low records may vary slightly from our data, if they occured in-between our weather recording intervals... More about our weather records

Advertising

Cardiff Weather History for the Previous 24 Hours

Scroll right to see more
 ConditionsComfort  
Time TempWeatherWind HumidityBarometerVisibility
7:50 AM
Sun, May 1
46 °FCool.6 mph87%30.33 "HgN/A
7:20 AM46 °FCool.6 mph82%30.33 "HgN/A
6:50 AM45 °FQuite cool.7 mph87%30.33 "HgN/A
6:20 AM45 °FQuite cool.6 mph87%30.33 "HgN/A
5:20 AM45 °FQuite cool.6 mph87%30.33 "HgN/A
4:50 AM43 °FQuite cool.7 mph87%30.33 "HgN/A
4:20 AM45 °FPassing clouds.5 mph87%30.33 "HgN/A
3:20 AM43 °FPassing clouds.6 mph87%30.33 "HgN/A
2:50 AM43 °FPassing clouds.6 mph87%30.33 "HgN/A
2:20 AM43 °FQuite cool.3 mph81%30.33 "HgN/A
1:50 AM43 °FQuite cool.5 mph81%30.33 "HgN/A
1:20 AM43 °FQuite cool.5 mph81%30.33 "HgN/A
12:50 AM43 °FQuite cool.5 mph81%30.33 "HgN/A
12:20 AM41 °FQuite cool.5 mph87%30.33 "HgN/A
11:50 PM
Sat, Apr 30
43 °FQuite cool.5 mph81%30.33 "HgN/A
11:20 PM43 °FQuite cool.6 mph81%30.33 "HgN/A
10:50 PM41 °FQuite cool.3 mph81%30.33 "HgN/A
9:50 PM43 °FQuite cool.7 mph76%30.33 "HgN/A
9:20 PM45 °FQuite cool.8 mph76%30.30 "HgN/A
8:50 PM45 °FQuite cool.8 mph76%30.30 "HgN/A
8:20 PM46 °FCool.15 mph66%30.30 "HgN/A
7:50 PM48 °FCool.13 mph62%30.27 "HgN/A
7:20 PM48 °FCool.13 mph66%30.27 "HgN/A
6:50 PM48 °FCool.16 mph58%30.27 "HgN/A
6:20 PM50 °FCool.16 mph62%30.27 "HgN/A
5:50 PM50 °FCool.16 mph62%30.24 "HgN/A
5:20 PM50 °FCool.17 mph62%30.24 "HgN/A
4:50 PM52 °FCool.20 mph58%30.24 "HgN/A
4:20 PM50 °FCool.18 mph62%30.24 "HgN/A
3:50 PM52 °FCool.18 mph58%30.24 "HgN/A
3:20 PM52 °FCool.20 mph58%30.21 "HgN/A
2:50 PM52 °FPassing clouds.18 mph58%30.21 "HgN/A
2:20 PM52 °FCool.18 mph62%30.21 "HgN/A
1:50 PM52 °FCool.18 mph62%30.21 "HgN/A
1:20 PM52 °FPassing clouds.16 mph62%30.21 "HgN/A
12:50 PM52 °FPassing clouds.15 mph62%30.21 "HgN/A
12:20 PM52 °FScattered clouds.13 mph62%30.21 "HgN/A
11:50 AM52 °FPartly sunny.12 mph58%30.21 "HgN/A
11:20 AM50 °FScattered clouds.13 mph58%30.18 "HgN/A
10:50 AM50 °FScattered clouds.12 mph58%30.18 "HgN/A
10:20 AM50 °FPassing clouds.15 mph62%30.18 "HgN/A
Weather by CustomWeather, © 2016

See weather overviewHow to use our weather pages